Location: Flint Hill Observatory
(31.1875°N, 100.5222°W)
Time: 04:35:16
(UTC-05:00)

Daily predictions for brighter satellites

Satellite Brightness Start Highest point End
(mag) Time Altitude Azimuth Time Altitude Azimuth Time Altitude Azimuth
Cosmos 2227 Rocket 2.8 00:08:49 50° W 00:09:16 51° WNW 00:14:47 10° N
ATLAS 3B R/B 3.8 00:10:27 10° N 00:16:30 31° NE 00:17:16 31° ENE
Terra 3.1 00:17:55 37° NW 00:17:55 37° NW 00:21:10 10° NNW
Cosmos 1709 Rocket 4.1 00:17:24 71° N 00:17:24 71° N 00:22:46 10° N
H-2A R/B 3.1 00:19:46 41° WNW 00:19:46 41° WNW 00:24:08 10° NNW
Cosmos 2333 Rocket 2.7 00:20:40 10° NNW 00:25:14 57° NW 00:25:14 57° NW
SL-16 R/B 3.4 00:23:34 10° N 00:27:44 34° NE 00:27:44 34° NE
NOSS 0 Rocket 4.4 00:28:17 10° NNW 00:33:18 52° WNW 00:33:18 52° WNW
Cosmos 2297 Rocket 3.1 00:36:45 42° WNW 00:36:45 42° WNW 00:41:54 10° N
Cosmos 2181 Rocket 4.3 00:40:51 10° N 00:46:15 65° NNW 00:46:15 65° NNW
Cosmos 2219 Rocket 3.7 00:44:49 10° NW 00:48:13 28° WNW 00:48:13 28° WNW
SeaSat 1 3.9 00:52:14 34° N 00:52:14 34° N 00:55:08 10° NNW
FALCON 9 R/B 2.9 00:48:53 10° WNW 01:03:14 74° NNW 01:03:14 74° NNW
Lacrosse 4 Rocket 3.9 00:59:23 10° NNW 01:00:59 21° N 01:00:59 21° N
Cosmos 2237 Rocket 4.1 01:15:12 10° NW 01:17:50 22° WNW 01:17:50 22° WNW
COSMOS 2455 4.1 01:29:12 10° NNW 01:32:41 35° NW 01:32:41 35° NW
Cosmos 2263 Rocket 3.7 02:00:53 31° NE 02:00:53 31° NE 02:03:57 10° NNE
CZ-2C R/B 4.4 02:02:40 41° NNE 02:02:40 41° NNE 02:06:43 10° N
H-2A ROCKET BODY 3.8 01:33:43 10° W 02:05:31 64° SW 02:05:31 64° SW
ATLAS 3B R/B 4.0 02:00:58 10° NW 02:04:30 28° WNW 02:04:30 28° WNW
SL-16 R/B 4.5 02:08:19 10° NW 02:09:36 15° WNW 02:09:36 15° WNW
USA 238 DEB 4.1 02:07:47 10° NNW 02:13:14 57° NW 02:13:14 57° NW
USA 238 4.1 02:07:53 10° NNW 02:13:22 58° NW 02:13:22 58° NW
CZ-4C R/B 3.2 02:20:37 10° NNW 02:27:52 61° ENE 02:28:37 58° E
CZ-2C R/B 4.2 02:24:48 10° N 02:27:44 29° NNW 02:27:44 29° NNW
ATLAS 2A CENTAUR R/B 4.1 02:38:20 32° ESE 02:38:20 32° ESE 02:47:28 10° E
Cosmos 1943 4.2 02:31:13 10° NNW 02:35:00 43° N 02:35:00 43° N
NOSS 3-2 (C) 4.4 02:41:07 10° NNW 02:48:42 59° ENE 02:51:10 43° ESE
NPP 4.3 03:05:56 10° NNE 03:10:15 51° ENE 03:10:15 51° ENE
NOSS 3-2 (A) 3.9 03:04:36 10° NNW 03:12:20 83° WSW 03:12:47 80° SSW
Cosmos 2056 Rocket 4.4 03:18:39 43° NNW 03:18:39 43° NNW 03:22:29 10° N
Meteor 1-20 Rocket 4.4 03:23:40 72° NE 03:23:40 72° NE 03:28:57 10° N
IRAS Rocket 4.4 03:20:18 10° NNE 03:25:09 70° NNE 03:25:09 70° NNE
Cosmos 407 Rocket 4.2 03:24:44 10° N 03:29:44 48° ENE 03:29:51 48° ENE
CZ-2D R/B 4.0 03:27:41 10° NE 03:31:43 21° E 03:33:04 19° ESE
Cosmos 1809 Rocket 4.4 03:37:08 69° ESE 03:37:31 71° E 03:43:37 10° NNE
Cosmos 1844 Rocket 2.7 03:39:58 79° NE 03:39:58 79° NE 03:45:21 10° NNE
Yuri Rocket 4.4 03:43:13 43° ESE 03:43:13 43° ESE 03:46:39 10° E
Cosmos 2263 Rocket 4.1 03:42:34 18° WNW 03:42:38 18° WNW 03:46:23 10° NNW
Cosmos 1844 3.7 03:47:31 70° ESE 03:47:36 70° ESE 03:53:18 10° NNE
Cosmos 1535 Rocket 4.3 03:48:02 79° SW 03:48:22 84° W 03:54:38 10° N
Meteor 2-21 4.2 03:49:33 79° S 03:49:57 90° E 03:56:04 10° N
IRS-1C 4.0 03:45:33 10° N 03:50:42 81° NNW 03:50:42 81° NNW
NOSS 2-2 (E) 4.1 03:55:06 53° NNE 03:55:06 53° NNE 03:58:39 10° NNE
IRS-1D 4.2 03:49:44 10° NNE 03:54:30 42° E 03:55:04 40° ESE
Cosmos 2278 Rocket 2.4 04:00:42 54° SE 04:01:29 59° ESE 04:07:03 10° NNE
H-2A R/B 3.7 04:00:50 46° SSW 04:01:53 47° SSW 04:34:31 10° SE
COSMOS 2406 3.1 03:58:01 10° NNW 04:03:49 84° WSW 04:04:28 71° S
Delta 2 Rocket 4.3 04:05:48 48° SSE 04:05:48 48° SSE 04:10:59 10° ESE
Cosmos 1954 Rocket 4.4 03:59:48 10° N 04:04:54 59° ENE 04:06:39 39° SE
Centaur D-1AR AC-48 4.4 03:48:34 10° W 04:11:39 12° SE 04:11:53 10° SE
SL-08 R/B 4.0 04:11:29 42° WNW 04:11:29 42° WNW 04:15:12 10° NNW
USA 234 3.1 04:08:03 10° SE 04:14:34 87° SW 04:21:09 10° NW
CZ-4C R/B 4.3 04:10:16 10° WNW 04:13:44 21° W 04:13:44 21° W
Resurs 1-4 Rocket 2.5 04:11:00 10° NNE 04:16:14 59° E 04:17:43 43° SSE
Cosmos 1356 4.2 04:21:45 51° ENE 04:21:45 51° ENE 04:24:49 10° NNE
Cosmos 1633 3.0 04:23:10 58° NNE 04:23:10 58° NNE 04:26:10 10° N
Cosmos 1452 Rocket 4.5 04:23:16 31° WNW 04:23:24 31° WNW 04:28:04 10° N
ARIANE 5 R/B 2.4 04:22:45 10° N 04:27:44 75° WNW 04:28:34 60° SW
Cosmos 1934 Rocket 4.2 04:26:46 45° WSW 04:27:55 51° W 04:33:56 10° N
Meteor 2-4 Rocket 4.1 04:26:10 10° N 04:31:28 58° E 04:35:26 17° SSE
Cosmos 1536 3.0 04:33:22 58° WNW 04:33:22 58° WNW 04:37:08 10° N
CENTAUR R/B 3.2 04:26:23 10° NNW 04:34:26 79° ENE 04:42:46 10° SSE
Cosmos 1420 Rocket 4.3 04:33:37 47° WSW 04:34:28 52° WNW 04:39:38 10° N
ADEOS 4.3 04:30:14 10° N 04:34:56 35° WNW 04:35:31 34° W
COSMOS 2487 3.1 04:34:33 10° N 04:38:07 56° ENE 04:39:14 37° SE
ASC 2 Rocket 4.2 04:39:09 29° SSE 04:39:09 29° SSE 04:41:59 10° ESE
Cosmos 1153 Rocket 4.5 04:35:22 33° S 04:38:29 88° E 04:44:54 10° N
Cosmos 1023 Rocket 4.4 04:33:45 10° NNW 04:38:51 82° ENE 04:42:17 21° SSE
Cosmos 1461 3.6 04:41:04 43° W 04:41:48 47° WNW 04:46:19 10° NNE
BREEZE-M DEB (TANK) 3.3 04:40:39 43° SSW 04:42:14 76° SE 04:45:44 10° NE
UNKNOWN OBJECT B 2.9 04:38:59 10° NNE 04:43:05 77° ESE 04:44:03 50° S
CZ-2D R/B 3.9 04:40:20 10° NNE 04:44:16 54° E 04:45:46 33° SSE
Okean O Rocket 2.4 04:45:26 10° NNE 04:49:37 46° E 04:52:07 22° SSE
SL-16 R/B 2.4 04:46:47 19° S 04:51:31 75° WSW 04:57:45 10° NNW
Skynet4D Del rocket 3.6 04:52:09 39° SW 04:53:49 55° S 04:59:14 10° ESE
EO 1 Del DPAF 3.3 04:57:15 48° SW 04:57:54 56° W 05:01:44 10° NNW
SME Rocket 2.7 04:57:33 33° S 04:59:09 74° WSW 05:02:59 10° NNW
Cosmos 1140 Rocket 3.4 04:54:15 10° NNW 04:59:18 60° WSW 05:02:32 22° S
Cosmos 1455 Rocket 3.1 04:59:03 39° SSW 05:00:34 64° W 05:05:00 10° N
BREEZE-M TANK 2.7 04:59:05 10° NW 05:01:35 55° NE 05:06:12 10° ESE
Cosmos 1025 Rocket 3.8 05:03:56 10° NNW 05:07:44 31° W 05:08:15 30° WSW
Shi Jian 4 4.1 05:07:59 24° W 05:10:23 54° SSW 05:12:39 10° ESE
Cosmos 1850 Rocket 4.0 05:06:08 10° NNW 05:11:19 63° WSW 05:16:31 10° S
CZ-2D R/B 2.8 05:06:47 10° N 05:11:49 39° WNW 05:14:23 25° WSW
Cosmos 1741 Rocket 4.0 05:07:57 10° NNW 05:13:09 63° WSW 05:18:18 10° S
Cosmos 2016 Rocket 4.3 05:07:39 10° S 05:13:56 68° E 05:20:10 10° NNE
Cosmos 1400 Rocket 4.1 05:15:58 22° W 05:16:25 23° WNW 05:19:33 10° NNW
USA 129 1.4 05:21:56 74° WSW 05:21:58 75° WSW 05:24:05 10° NNW
Cosmos 1302 Rocket 4.3 05:22:10 11° S 05:27:05 66° ESE 05:32:16 10° NNE
APEX 3.3 05:27:06 29° WSW 05:27:51 35° WNW 05:30:43 10° N
PAYLOAD B 4.3 05:28:08 10° N 05:33:42 70° WNW 05:39:03 11° SSW
Cosmos 2285 Rocket 4.2 05:31:12 10° S 05:37:25 72° ESE 05:43:42 10° NNE
Yuri Rocket 3.4 05:33:28 12° W 05:38:32 56° S 05:42:53 10° ESE
Cosmos 2173 Rocket 4.2 05:33:45 13° SSW 05:38:55 50° W 05:44:53 10° N
Tiangong 1 3.0 05:43:35 14° SSW 05:43:35 14° SSW 05:44:30 10° S
Cosmos 1315 Rocket 4.4 05:41:29 16° WSW 05:43:12 20° WNW 05:46:14 10° NNW
BREEZE-M DEB (TANK) 3.7 05:36:12 13° SW 05:44:27 67° SE 05:47:36 10° ENE
Cosmos 2278 Rocket 4.0 05:42:36 10° W 05:45:55 16° WNW 05:49:15 10° NNW
Cosmos 1802 Rocket 4.2 05:40:06 10° SSW 05:45:58 51° W 05:51:56 10° N
OTV 4 2.0 05:46:10 17° SW 05:46:17 17° SW 05:48:18 10° S
CZ-4B R/B 3.3 05:42:14 10° N 05:46:41 57° WNW 05:51:00 10° SSW
Cosmos 2098 Rocket 3.4 05:43:40 10° SSE 05:46:45 49° E 05:50:27 10° NNE
CZ-4B DEB 4.4 05:43:24 10° N 05:48:52 59° WNW 05:54:18 10° SSW
ARGOS Delta rocket 4.5 05:44:06 10° NNE 05:49:35 72° E 05:55:01 10° S
ATLAS 5 CENTAUR R/B 2.4 05:47:52 10° NW 05:54:01 67° WSW 06:00:27 10° SSE
Resurs 1-4 Rocket 4.0 05:52:53 10° NW 05:55:30 14° WNW 05:58:06 10° W
BREEZE M DEB (TANK) 4.2 05:41:53 10° NW 05:57:23 48° WSW 06:01:39 10° SSE
Fermi 4.4 05:54:15 12° WSW 05:57:39 37° S 06:01:26 10° ESE
MOZ.5/SAFIR/RUBIN 5/SL-8 4.0 05:53:03 10° S 05:57:41 53° W 06:02:22 10° NNW
Cosmos 1975 3.8 05:55:13 11° SW 05:58:27 28° W 06:01:56 10° NNW
Cosmos 1346 Rocket 2.8 05:56:42 10° NNW 06:00:44 74° W 06:04:42 10° S
Cosmos 1486 Rocket 4.2 05:58:27 10° NNW 06:03:47 80° ENE 06:09:07 10° SSE
Cosmos 1174 3.1 06:01:33 10° NNW 06:04:53 81° WSW 06:07:51 10° SSE
CZ-4B R/B 4.0 06:00:57 10° N 06:06:03 36° WNW 06:11:08 10° SW
Cosmos 1743 2.6 06:05:23 10° S 06:09:12 78° W 06:13:01 10° N
Cosmos 2082 Rocket 2.2 06:03:53 10° NNW 06:09:32 63° WSW 06:15:07 10° S
BREEZE-M DEB 4.1 06:07:56 10° WSW 06:10:11 54° NW 06:13:18 10° NE
Orbus 21S 3.5 06:06:32 10° W 06:11:48 26° SSW 06:14:04 10° SE
BREEZE-M DEB (TANK) 4.2 06:10:03 10° WNW 06:11:54 16° NNW 06:14:10 10° NNE
Cosmos 1666 4.2 06:09:24 10° SSE 06:13:02 40° E 06:16:41 10° NNE
Okean-O 2.9 06:10:27 10° N 06:14:46 52° WNW 06:19:03 10° SSW
Thor Agena Rocket 4.1 06:11:28 10° SSW 06:16:15 37° W 06:21:00 10° NNW
CZ-3 Stage 3 3.6 06:01:20 10° WSW 06:30:28 79° S 06:35:32 10° E
